Powrót do katalogu

STARLINK-4501

AktywnyŁącznośćVLEO
NORAD 53553·PAYLOAD·🇺🇸 United States

Wystrzelony Aug 19, 2022 z Cape Canaveral Space Force Station

Loading…

Następne Przeloty (najbliższe 24 godziny)

TLE

ŚwieżeSource: CelesTrak SupGP

Epoka: Sep 15, 2026, 02:20 UTC

1 53553C 22101AC  26258.09770833  .00020907  00000+0  13110-2 0  2580
2 53553  53.1589 293.0811 0001265  87.9022 229.2206 15.08826144    13

Śledź STARLINK-4501 w czasie rzeczywistym z AllMySat

Download on the App Store